Погода в Триполи

Ливан     34°26′03″N   35°50′13″E
темп.,
°C
ветер,
м/с
пор.,
м/с
влажн.,
%
обл.,
%
осадки,
мм/ч
давл.,
гПа
погр.,
м
25 января, пн
пн2523:00+15всв55520 0.0 1022264
02:00+14св65570 0.0 1021288
05:00+14всв76560 0.0 1021285
08:00+14всв77580 0.0 1021248
11:00+15всв545233 0.0 1022245
14:00+16св324767 0.0 1019329
17:00+16св2244100 0.0 1020474
20:00+16всв224867 0.0 1022406
26 января, вт
вт2623:00+16всв21510 0.0 1023493
02:00+15всв32540 0.0 1022435
05:00+15всв445635 0.0 1022275
08:00+14всв665348 0.0 1023280
11:00+15св555099 0.0 1022279
14:00+17св3343100 0.0 1020403
17:00+17всв6648100 0.0 1019509
20:00+16всв7752100 0.0 1019376
27 января, ср
ср2723:00+16всв6652100 0.0 1018229
02:00+16всв8852100 0.0 1016244
05:00+16всв7751100 0.0 1014238
08:00+16всв6650100 0.0 1014181
11:00+17всв4448100 0.0 1013186
14:00+18всв1143100 0.0 1011302
17:00+18ссв1143100 0.0 1011266
20:00+18в2245100 0.0 1010217
28 января, чт
чт2823:00+19ююз8116076 0.0 10101220
02:00+18юз13156953 0.2 10101486
05:00+15з13147235 2.9 10111175
08:00+16зюз9116168 3.9 10121795
11:00+15юз11126368 1.8 10131581
14:00+15юз12146482 3.7 10111932
17:00+14юз111370100 3.6 10111446
20:00+15юз121471100 6.8 10121615
29 января, пт
пт2923:00+14юз131469100 3.3 10121758
02:00+14зюз12147093 6.5 10111653
05:00+13зюз111271100 3.8 10101426
08:00+13зюз121370100 6.9 10111629
11:00+14зюз151763100 3.3 10112213
14:00+14зюз161958100 4.8 10112557
17:00+13з11136026 1.8 10121931
20:00+14з13145039 2.5 10142250